FW7711 Weather Reports


time (UTC)temp
F
wind
direction
speed
knots
gust
knots
rain 1hr
in
rain 24hr
in
rain mn
in
humidity
%
barometer
mb
20260507151557 50 0.0 0.0 0.00 0.00 0.00 45 1013.4
20260507150059 52 0.0 0.0 0.00 0.00 0.00 45 1013.4
20260507144604 50 0.0 0.0 0.00 0.00 0.00 48 1013.4
20260507143106 50 0.0 0.0 0.00 0.00 0.00 45 1013.6
20260507141616 49 0.0 0.0 0.00 0.00 0.00 47 1013.6
20260507140110 47 0.0 0.0 0.00 0.00 0.00 55 1013.6
20260507134609 45 0.0 0.0 0.00 0.00 0.00 63 1013.7
20260507133109 43 0.0 0.0 0.00 0.00 0.00 69 1013.7
20260507131600 40 0.0 0.0 0.00 0.00 0.00 77 1013.7
20260507130058 38 0.0 0.0 0.00 0.00 0.00 90 1013.8
20260507124558 35 0.0 0.0 0.00 0.00 0.00 95 1013.8
20260507123100 31 0.0 0.0 0.00 0.00 0.00 93 1014.0
20260507121558 30 0.0 0.0 0.00 0.00 0.00 93 1013.9
20260507120100 29 0.0 0.0 0.00 0.00 0.00 92 1013.9
20260507114603 29 0.0 0.0 0.00 0.00 0.00 91 1014.0
20260507113102 28 0.0 0.0 0.00 0.00 0.00 90 1013.9
20260507111603 29 0.0 0.0 0.00 0.00 0.00 90 1013.8
20260507110104 29 0.0 0.0 0.00 0.00 0.00 89 1013.8
20260507104602 29 0.0 0.0 0.00 0.00 0.00 89 1013.8
20260507103059 29 0.0 0.0 0.00 0.00 0.00 89 1013.9
20260507101634 29 0.0 0.0 0.00 0.00 0.00 88 1013.8
20260507100058 29 0.0 0.0 0.00 0.00 0.00 88 1013.9
20260507094600 29 0.0 0.0 0.00 0.00 0.00 88 1014.0
20260507093100 30 0.0 0.0 0.00 0.00 0.00 87 1014.1
20260507091600 30 0.0 0.0 0.00 0.00 0.00 87 1014.1
20260507090113 30 0.0 0.0 0.00 0.00 0.00 87 1014.1
20260507084601 30 0.0 0.0 0.00 0.00 0.00 86 1014.1
20260507083100 31 0.0 0.0 0.00 0.00 0.00 86 1014.0
20260507081559 31 0.0 0.0 0.00 0.00 0.00 85 1014.1
20260507074601 32 0.0 0.0 0.00 0.00 0.00 83 1014.1
20260507073100 32 0.0 0.0 0.00 0.00 0.00 81 1014.3
20260507071606 33 0.0 0.0 0.00 0.00 0.00 80 1014.4
20260507064618 35 0.0 0.0 0.00 0.00 0.00 77 1014.7
20260507063059 36 0.0 0.0 0.00 0.00 0.00 76 1014.8
20260507061600 37 0.0 0.0 0.00 0.00 0.00 73 1014.9
20260507060101 38 0.0 0.0 0.00 0.00 0.00 71 1014.9
20260507054608 38 0.0 0.0 0.00 0.00 0.00 71 1015.0
20260507053059 39 0.0 0.0 0.00 0.00 0.00 71 1015.0
20260507051600 39 0.0 0.0 0.00 0.00 0.00 72 1015.2
20260507044559 39 0.0 0.0 0.00 0.00 0.00 70 1015.3
20260507043104 39 0.0 0.0 0.00 0.00 0.00 69 1015.3
20260507041612 39 0.0 0.0 0.00 0.00 0.00 69 1015.5
20260507040101 39 0.0 0.0 0.00 0.00 0.00 69 1015.6
20260507034612 39 0.0 0.0 0.00 0.00 0.00 69 1015.6
20260507033059 38 0.0 0.0 0.00 0.00 0.00 69 1015.6
20260507031605 38 0.0 0.0 0.00 0.00 0.00 69 1015.6
20260507030105 38 0.0 0.0 0.00 0.00 0.00 69 1015.7
20260507024607 38 0.0 0.0 0.00 0.00 0.00 66 1015.8
20260507023113 39 0.0 0.0 0.00 0.00 0.00 63 1015.8
20260507021559 40 0.0 0.0 0.00 0.00 0.00 60 1015.9
20260507020100 41 0.0 0.0 0.00 0.00 0.00 59 1015.8
20260507014607 42 0.0 0.0 0.00 0.00 0.00 57 1015.8
20260507013115 43 0.0 0.0 0.00 0.00 0.00 53 1015.7
20260507011600 43 0.0 0.0 0.00 0.00 0.00 52 1015.7
20260507010059 44 0.0 0.0 0.00 0.00 0.00 50 1015.7
20260507004559 45 0.0 0.0 0.00 0.00 0.00 50 1015.9
20260507003058 45 0.0 0.0 0.00 0.00 0.00 49 1015.9
20260507001620 45 0.0 0.0 0.00 0.00 0.00 49 1016.0
20260507000101 46 0.0 0.0 0.00 0.00 0.00 49 1016.0
20260506234558 46 0.0 0.0 0.00 0.00 0.00 49 1016.1
20260506233107 47 0.0 0.0 0.00 0.00 0.00 48 1016.2
20260506231557 47 0.0 0.0 0.00 0.00 0.00 49 1016.2
20260506224610 47 0.0 0.0 0.00 0.00 0.00 49 1016.3
20260506223126 47 0.0 0.0 0.00 0.00 0.00 49 1016.3
20260506221604 46 0.0 0.0 0.00 0.00 0.00 50 1016.4
20260506220101 46 0.0 0.0 0.00 0.00 0.00 51 1016.4
20260506214610 46 0.0 0.0 0.00 0.00 0.00 51 1016.4
20260506213058 46 0.0 0.0 0.00 0.00 0.00 50 1016.5
20260506211600 46 0.0 0.0 0.00 0.00 0.00 52 1016.4
20260506210121 45 0.0 0.0 0.00 0.00 0.00 54 1016.7
20260506204600 45 0.0 0.0 0.00 0.00 0.00 53 1016.8
20260506203103 45 0.0 0.0 0.00 0.00 0.00 53 1016.9
20260506201600 45 0.0 0.0 0.00 0.00 0.00 55 1016.8
20260506200143 45 0.0 0.0 0.00 0.00 0.00 54 1016.9
20260506194614 44 0.0 0.0 0.00 0.00 0.00 55 1017.0
20260506193058 44 0.0 0.0 0.00 0.00 0.00 54 1017.0
20260506191601 44 0.0 0.0 0.00 0.00 0.00 54 1017.0
20260506190058 44 0.0 0.0 0.00 0.00 0.00 55 1017.0
20260506184600 44 0.0 0.0 0.00 0.00 0.00 54 1017.1
20260506183059 44 0.0 0.0 0.00 0.00 0.00 53 1017.1
20260506181557 44 0.0 0.0 0.00 0.00 0.00 54 1017.2
20260506180106 43 0.0 0.0 0.00 0.00 0.00 53 1017.1
20260506174558 44 0.0 0.0 0.00 0.00 0.00 53 1017.2
20260506173116 44 0.0 0.0 0.00 0.00 0.00 53 1017.4
20260506171601 44 0.0 0.0 0.00 0.00 0.00 53 1017.4
20260506170059 43 0.0 0.0 0.00 0.00 0.00 55 1017.5
20260506164555 42 0.0 0.0 0.00 0.00 0.00 56 1017.5
20260506163103 42 0.0 0.0 0.00 0.00 0.00 55 1017.5
20260506161558 42 0.0 0.0 0.00 0.00 0.00 55 1017.5
20260506160109 42 0.0 0.0 0.00 0.00 0.00 56 1017.5
20260506154558 41 0.0 0.0 0.00 0.00 0.00 55 1017.5
20260506153100 42 0.0 0.0 0.00 0.00 0.00 56 1017.4